Home   Weather   Höxter   Past weeks

Flag for Germany Past Weather in Höxter, North Rhine-Westphalia, Germany — Yesterday and Last 2 Weeks

Now
54 °F

Light rain. Overcast.


Feels Like: 53 °F
Forecast: 49 / 69 °F
Wind: 3 mph from Northwest

Location: Kassel / Calden

Current Time: Sep 27, 2016 at 7:25:24 AM

Latest Report: Sep 27, 2016 at 6:50 AM


Visibility: N/A

Pressure: 30.27 "Hg

Humidity: 100%

Dew Point: 54 °F

Location of HöxterLocation

Past Weather in Höxter — Graph

°F

Höxter Temperature Yesterday

Maximum temperature yesterday: 64 °F (at 1:20 PM)
Minimum temperature yesterday: 55 °F (at 7:20 AM)
Average temperature yesterday: 61 °F

High & Low Weather Summary for the Past Weeks

 TemperatureHumidityPressure
High88 °F (Sep 12, 3:50 PM)100% (Sep 12, 7:20 AM)30.30 "Hg (Sep 12, 7:20 AM)
Low43 °F (Sep 21, 7:20 AM)33% (Sep 13, 3:20 PM)29.86 "Hg (Sep 15, 3:50 PM)
Average66 °F66%30.08 "Hg
* Reported Sep 12 7:20 AM — Sep 27 5:50 AM, Höxter, Weather by CustomWeather, © 2016

Note: Actual official high and low records may vary slightly from our data, if they occured in-between our weather recording intervals... More about our weather records

Advertising

Höxter Weather History for the Previous 24 Hours

Scroll right to see more
 ConditionsComfort  
Time TempWeatherWind HumidityBarometerVisibility
5:50 AM
Tue, Sep 27
55 °FPassing clouds.2 mph100%30.24 "HgN/A
7:50 PM
Mon, Sep 26
61 °FPassing clouds.3 mph77%30.21 "HgN/A
7:20 PM61 °FPassing clouds.6 mph77%30.21 "HgN/A
6:50 PM63 °FBroken clouds.6 mph73%30.21 "HgN/A
6:20 PM63 °FBroken clouds.6 mph73%30.21 "HgN/A
5:50 PM63 °FBroken clouds.7 mph73%30.21 "HgN/A
5:20 PM63 °FBroken clouds.7 mph73%30.21 "HgN/A
4:50 PM64 °FScattered clouds.8 mph68%30.21 "HgN/A
4:20 PM63 °FMore clouds than sun.6 mph73%30.21 "HgN/A
3:50 PM64 °FMore clouds than sun.6 mph68%30.21 "HgN/A
3:20 PM64 °FMore clouds than sun.5 mph68%30.21 "HgN/A
2:50 PM64 °FBroken clouds.6 mph68%30.21 "HgN/A
2:20 PM63 °FBroken clouds.6 mph68%30.21 "HgN/A
1:50 PM64 °FBroken clouds.7 mph64%30.21 "HgN/A
1:20 PM64 °FBroken clouds.7 mph68%30.21 "HgN/A
12:50 PM63 °FBroken clouds.5 mph73%30.21 "HgN/A
12:20 PM63 °FBroken clouds.5 mph73%30.21 "HgN/A
11:50 AM63 °FPartly sunny.7 mph73%30.21 "Hg6 mi
11:20 AM61 °FPartly sunny.7 mph83%30.21 "Hg6 mi
10:50 AM59 °FPartly sunny.7 mph88%30.21 "Hg6 mi
10:20 AM57 °FPartly sunny.9 mph100%30.21 "Hg6 mi
9:50 AM57 °FPartly sunny.8 mph100%30.21 "Hg6 mi
9:20 AM55 °FLight rain. Partly sunny.6 mph100%30.21 "HgN/A
8:50 AM55 °FDrizzle. Partly sunny.6 mph100%30.21 "HgN/A
8:20 AM55 °FMostly cloudy.5 mph100%30.21 "Hg6 mi
7:50 AM55 °FBroken clouds.3 mph100%30.21 "Hg6 mi
7:20 AM55 °FCloudy.3 mph100%30.21 "Hg6 mi
Weather by CustomWeather, © 2016

See weather overviewHow to use our weather pages